User: anonymous   Login
Location: Unspecified
(0.0000°N, 0.0000°E)
Time: 21:48:45
(UTC+00:00)
Language:

COSMOS 2490 - Orbit

View from above orbital plane
View from above orbital plane
View from above satellite
View from above satellite

Ground track
Ground track

The orbit data is extracted from the following two-line orbital elements,

1 39485U 13076C   17117.72880371 +.00000010 +00000-0 +00000-0 0  9990
2 39485 082.4805 088.5139 0021137 181.9686 178.1319 12.42882767151492
Epoch (UTC): 27 April 2017 17:29:28
Eccentricity: 0.0021137
inclination: 82.4805°
perigee height: 1478 km
apogee height: 1511 km
right ascension of ascending node: 88.5139°
argument of perigee: 181.9686°
revolutions per day: 12.42882767
mean anomaly at epoch: 178.1319°
orbit number at epoch: 15149

The dashed part of the orbit path shows where the satellite is in the earth's shadow,  

DLR